033  
ASUS44 KSJT 211602  
RWRSJT  
WEST CENTRAL TEXAS REGIONAL WEATHER ROUNDUP  
NATIONAL WEATHER SERVICE SAN ANGELO TX  
1100 AM CDT SAT MAY 21 2022  
 
NOTE: "FAIR" INDICATES FEW OR NO CLOUDS BELOW 12,000 FEET WITH NO  
SIGNIFICANT WEATHER AND/OR S TO VISIBILITY
.  
 
TXZ049-054-064>066-071>073-076>078-098-099-113-114-127-128-139-140-  
154-155-168>170-211700-   
..LOCATIONS ACROSS WEST CENTRAL TEXAS
 
 
 
CITY SKY/WX TMP DP RH WIND PRES REMARKS
 
SAN ANGELO SUNNY 82 57 42 NE15G23 29.89R  
ABILENE SUNNY 72 49 44 N18G26 29.95R  
DYESS AFB NOT AVBL  
JUNCTION SUNNY 86 66 51 S7G20 29.86R  
SWEETWATER NOT AVBL  
BROWNWOOD MOSUNNY 81 66 61 NW9 29.89R  
COLEMAN CLOUDY 77 52 41 N16 29.92R  
SAN SABA MOSUNNY 86 67 53 S3 29.88R  
SONORA NOT AVBL  
OZONA NOT AVBL  
BRADY NOT AVBL  

 
 
TXZ001-004-007-008-010-012-014-016-OKZ002-211700-  
TEXAS PANHANDLE/OKLAHOMA PANHANDLE  
 
CITY SKY/WX TMP DP RH WIND PRES REMARKS
 
AMARILLO CLOUDY 53 33 46 N26G36 30.14R  
BORGER CLOUDY 55 33 43 N22G32 30.17R  
CANADIAN CLOUDY 57 34 42 NE18G26 30.15R  
DALHART CLOUDY 49 31 49 NE21G44 30.22R  
DUMAS PTSUNNY 47 32 56 N23G30 30.20R WCI 39  
GUYMON NOT AVBL  
HEREFORD SUNNY 54 33 44 MISG 30.16R  
PAMPA NOT AVBL  
PERRYTON CLOUDY 50 32 49 N21G28 30.18R  

 
 
TXZ035-026-045-048-211700-  
SOUTHERN PANHANDLE/SOUTH PLAINS/ROLLING PLAINS  
 
CITY SKY/WX TMP DP RH WIND PRES REMARKS
 
LUBBOCK SUNNY 62 31 31 N22G36 30.06R  
SNYDER SUNNY 67 33 27 N16G24 30.00R  
CHILDRESS CLOUDY 64 34 32 NE20G32 30.06R  
SEMINOLE NOT AVBL  

 
 
TXZ060>062-211700-  
PERMIAN BASIN  
 
CITY SKY/WX TMP DP RH WIND PRES REMARKS
 
MIDLAND SUNNY 68 36 30 N22 29.99R HAZE  
ODESSA CLOUDY 68 36 30 NE18G26 30.02R HAZE  
WINK CLOUDY 66 32 28 N21G29 30.04R  

 
 
TXZ075-082-271-274-277-419-211700-  
FAR WEST/SOUTHWEST MOUNTAINS/TRANS PECOS  
 
CITY SKY/WX TMP DP RH WIND PRES REMARKS
 
ALPINE MOSUNNY 71 33 24 NE13 30.12R  
DRYDEN N/A 88 61 40 NE14 29.87S  
EL PASO SUNNY 77 35 21 W8 30.00S  
FORT STOCKTON CLOUDY 74 43 32 NW22G32 30.00R  
GUADALUPE PASS SUNNY 59 33 37 E20 30.10R  
MARFA SUNNY 73 35 25 N23 30.07R  
PECOS NOT AVBL  

 
 
TXZ118-119-211700-  
DALLAS/FORT WORTH METROPLEX  
 
CITY SKY/WX TMP DP RH WIND PRES REMARKS
 
DFW AIRPORT PTSUNNY 83 72 69 S9 29.84S  
FTW MEACHAM MOSUNNY 83 71 67 S13 29.85S  
DAL-EXECUTIVE PTSUNNY 85 69 58 S12 29.86S  
GRAND PRAIRIE N/A 82 70 65 S9 29.88R  
ADDISON MOSUNNY 79 73 83 S6 29.88R  
MESQUITE NOT AVBL  
LANCASTER MOSUNNY 84 71 63 S13 29.87F  

 
 
TXZ092-093-103-131-134-211700-  
NORTH CENTRAL TEXAS  
 
CITY SKY/WX TMP DP RH WIND PRES REMARKS
 
SHRMAN/DENISON CLOUDY 77 72 83 N9 29.89R  
GAINESVILLE CLOUDY 67 62 83 N9 29.92R  
BRIDGEPORT NOT AVBL  
DENTON PTSUNNY 85 70 60 S13G24 29.85R  
WAXAHACHIE PTSUNNY 84 71 64 S14 29.88F  
GRANBURY CLOUDY 83 69 61 S10G16 29.87R  

 
 
TXZ085-086-115-141-211700-  
WESTERN NORTH TEXAS  
 
CITY SKY/WX TMP DP RH WIND PRES REMARKS
 
WICHITA FALLS CLOUDY 65 49 56 N22G31 29.96R  
VERNON NOT AVBL  
BRECKENRIDGE CLOUDY 70 55 58 N12G20 29.94R HAZE  
COMANCHE CLOUDY 84 70 61 SW5 29.88S  

 
 
TXZ145-158-159-173-191-192-194-205-207-220-223-211700-  
CENTRAL AND SOUTH CENTRAL TEXAS  
 
CITY SKY/WX TMP DP RH WIND PRES REMARKS
 
AUSTIN/BERGSTM MOSUNNY 86 71 60 S15 29.84S  
WACO MOSUNNY 87 71 58 S17G29 29.83S  
HILLSBORO CLOUDY 85 71 64 S13 29.87R  
TEMPLE PTSUNNY 86 72 62 S21G30 29.85S  
KILLEEN-GRAY MOSUNNY 85 69 58 SE17 29.82R  
FORT HOOD NOT AVBL  
GEORGETOWN MOSUNNY 85 70 60 S20 29.86S  
LAGO VISTA PTSUNNY 85 70 62 S12G20 29.87S  
SAN MARCOS MOSUNNY 86 72 62 SE15G21 29.85S  
NEW BRAUNFELS MOSUNNY 87 71 58 S12G21 29.83S HAZE  
RANDOLPH AFB NOT AVBL  
SAN ANTONIO MOSUNNY 85 70 60 SE10 29.84S  
STINSON PTSUNNY 89 73 59 SE6G16 29.81R  
PLEASANTON NOT AVBL  
LA GRANGE PTSUNNY 89 74 60 S14G20 29.84S  
GIDDINGS MOSUNNY 85 72 64 S10G17 29.88R  

 
 
TXZ095-096-136-137-148-152-211700-  
EAST TEXAS  
 
CITY SKY/WX TMP DP RH WIND PRES REMARKS
 
PARIS MOSUNNY 85 75 72 S13G20 29.89F  
CLARKSVILLE NOT AVBL  
TYLER MOSUNNY 87 73 62 S22G28 29.88R  
LONGVIEW PTSUNNY 86 74 67 S13G18 29.89R  
PALESTINE NOT AVBL  
NACOGDOCHES MOSUNNY 86 75 69 MISG 29.91R  

 
 
TXZ171-183-184-186-188-203-204-211700-  
TEXAS HILL COUNTRY AND EDWARDS PLATEAU  
 
CITY SKY/WX TMP DP RH WIND PRES REMARKS
 
LLANO SUNNY 90 64 43 S10G17 29.83S  
HORSESHOE BAY FAIR 87 67 50 S8G16 29.85S  
KERRVILLE SUNNY 83 69 61 S13 29.87S  
FREDERICKSBRG NOT AVBL  
ROCKSPRINGS SUNNY 82 68 61 SE10G20 29.93R  
HONDO MOSUNNY 86 70 58 VRB7 29.83S  
UVALDE NOT AVBL  
DEL RIO SUNNY 86 71 60 SE9G18 29.79R  

 
 
TXZ163-177-195>197-199-213-226-237-211700-  
SOUTHEAST TEXAS  
 
CITY SKY/WX TMP DP RH WIND PRES REMARKS
 
COLLEGE STN PTSUNNY 87 73 62 S15G28 29.87S  
CALDWELL NOT AVBL  
CROCKETT MOSUNNY 86 75 70 S12G24 29.90R  
BRENHAM PTSUNNY 88 75 66 S12 29.88R  
HUNTSVILLE MOSUNNY 88 72 58 S10G25 29.90R  
CONROE MOSUNNY 87 74 64 S13 29.90R  
HOUSTON BUSH MOSUNNY 89 72 56 S17G24 29.88S  
HOUSTON HOBBY PTSUNNY 89 74 60 SE15 29.88R  
PERLAND PTSUNNY 88 76 67 S14G21 29.90R  
WHARTON MOSUNNY 91 71 53 SE17 29.86S  

 
 
TXZ215-216-236-237-438-211700-  
THE UPPER TEXAS COAST  
 
CITY SKY/WX TMP DP RH WIND PRES REMARKS
 
ORANGE NOT AVBL  
PORT ARTHUR PTSUNNY 88 77 69 SE17G28 29.91R  
GALVESTON CLOUDY 88 78 72 SE16 29.90R  
ANGLETON CLOUDY 88 76 67 S16 29.88R  
BAY CITY PTSUNNY 89 77 67 S13 29.87R  

 
 
TXZ229-232-234-239-242-243-245-247-249-250-  
253-255-257-343-347-443-211700-  
TEXAS COASTAL BEND, RIO GRANDE PLAINS DEEP SOUTH TEXAS  
 
CITY SKY/WX TMP DP RH WIND PRES REMARKS
 
VICTORIA MOSUNNY 92 74 55 SE22 29.83R  
BEEVILLE FAIR 90 67 46 S20G25 29.80R  
ROCKPORT CLOUDY 86 78 77 SE13G23 29.81R  
PORT ARANSAS NOT AVBL  
PORT LAVACA SUNNY 91 75 59 S18 29.84R  
CORPUS CHRISTI MOSUNNY 90 75 61 S24G35 29.79R  
KINGSVILLE NAS SUNNY 95 70 44 S22G31 29.77R  
COTULLA SUNNY 86 70 58 S8 29.78S  
LAREDO SUNNY 89 73 59 S16 29.76S  
BROWNSVILLE MOSUNNY 90 77 65 S23G30 29.78S  
PORT ISABEL MOSUNNY 88 76 67 S22G31 29.78S  
HEBBRONVILLE NOT AVBL  
MCALLEN MOSUNNY 90 73 57 S20G30 29.77S  
WESLACO NOT AVBL  
 
CLICK HERE TO GO TO PREVIOUS BULLETINS.

The Nexlab TX Page Main Text Page